Douglas Bisbee, AZ

12:17 PM MST on August 18, 2017 (GMT -0700)
Bisbee Douglas International

Weather History for KDUG - February, 2014

Change the Weather History Date:

Saturday, February 1, 2014

  Actual Average Record
Temperature  
Mean Temperature 49 °F 48 °F  
Max Temperature 61 °F 64 °F 80 °F (2003)
Min Temperature 37 °F 31 °F 12 °F (1949)
Degree Days  
Heating Degree Days 16 17  
Month to date heating degree days 16 17  
Since 1 July heating degree days 1644 1622  
Cooling Degree Days 0 0  
Month to date cooling degree days 0 0  
Year to date cooling degree days 0 0  
Moisture  
Dew Point 30 °F    
Average Humidity 49    
Maximum Humidity 70    
Minimum Humidity 27    
Precipitation  
Precipitation 0.00 in 0.03 in 0.25 in (1990)
Month to date precipitation 0.00 0.03  
Year to date precipitation T 0.77  
Sea Level Pressure  
Sea Level Pressure 29.79 in    
Wind  
Wind Speed 13 mph (WSW)    
Max Wind Speed 24 mph    
Max Gust Speed 31 mph    
Visibility 10 miles    
Events      
T = Trace of Precipitation, MM = Missing Value Source: NWS Daily Summary

Daily Weather History Graph

Daily Weather History Graph

Search for Another Location

Airport or City:

Trip Planner

Search our weather history database for the weather conditions in past years. The results will help you decide how hot, cold, wet, or windy it might be!

Date:

Astronomy

Feb. 01, 2014 Rise Set
Actual Time 7:11 AM MST 5:53 PM MST
Civil Twilight 6:45 AM MST 6:18 PM MST
Nautical Twilight 6:16 AM MST 6:47 PM MST
Astronomical Twilight 5:47 AM MST 7:16 PM MST
Moon 8:13 AM MST (2/1) 8:19 PM MST (2/1)
Length of Visible Light 11h 33m
Length of Day
10h 42m
Waxing Crescent, 5% of the Moon is Illuminated
Feb 1
Waxing Crescent
Feb 6
First Quarter
Feb 14
Full
Feb 22
Last Quarter
Mar 1
New

Hourly Weather History & Observations

Time (MST) Temp. Windchill Dew Point Humidity Pressure Visibility Wind Dir Wind Speed Gust Speed Precip Events Conditions
12:56 AM 52.0 °F - 28.0 °F 40% 29.75 in 10.0 mi SW 11.5 mph - N/A   Clear
1:56 AM 51.1 °F - 30.9 °F 46% 29.74 in 10.0 mi SW 13.8 mph - N/A   Scattered Clouds
2:56 AM 51.1 °F - 32.0 °F 48% 29.73 in 10.0 mi SW 16.1 mph - N/A   Partly Cloudy
3:56 AM 51.1 °F - 33.1 °F 50% 29.73 in 10.0 mi WSW 17.3 mph - N/A   Partly Cloudy
4:56 AM 50.0 °F - 34.0 °F 54% 29.74 in 10.0 mi SW 16.1 mph - N/A   Partly Cloudy
5:56 AM 46.9 °F - 30.9 °F 54% 29.77 in 10.0 mi WSW 10.4 mph - N/A   Clear
6:56 AM 48.0 °F - 33.1 °F 56% 29.79 in 10.0 mi WSW 9.2 mph - N/A   Mostly Cloudy
7:56 AM 48.0 °F - 33.1 °F 56% 29.79 in 10.0 mi SW 10.4 mph - N/A   Mostly Cloudy
8:56 AM 50.0 °F - 36.0 °F 59% 29.80 in 10.0 mi WSW 9.2 mph - N/A   Mostly Cloudy
9:56 AM 52.0 °F - 36.0 °F 54% 29.83 in 10.0 mi NE 4.6 mph - N/A   Overcast
10:56 AM 57.0 °F - 35.1 °F 44% 29.80 in 10.0 mi SSW 19.6 mph - N/A   Clear
11:56 AM 57.0 °F - 30.9 °F 37% 29.78 in 10.0 mi SSW 20.7 mph 27.6 mph N/A   Clear
12:56 PM 57.0 °F - 32.0 °F 39% 29.76 in 10.0 mi West 12.7 mph - N/A   Overcast
1:56 PM 57.9 °F - 28.9 °F 33% 29.74 in 10.0 mi WSW 13.8 mph 24.2 mph N/A   Mostly Cloudy
2:56 PM 61.0 °F - 26.1 °F 26% 29.73 in 10.0 mi WSW 16.1 mph - N/A   Mostly Cloudy
3:56 PM 60.1 °F - 26.1 °F 27% 29.72 in 10.0 mi WSW 10.4 mph 21.9 mph N/A   Mostly Cloudy
4:56 PM 57.9 °F - 27.0 °F 31% 29.75 in 10.0 mi West 16.1 mph - N/A   Mostly Cloudy
5:56 PM 54.0 °F - 26.1 °F 34% 29.78 in 10.0 mi WSW 15.0 mph - N/A   Clear
6:56 PM 53.1 °F - 30.0 °F 41% 29.80 in 10.0 mi WSW 9.2 mph - N/A   Mostly Cloudy
7:56 PM 51.1 °F - 28.9 °F 43% 29.83 in 10.0 mi West 11.5 mph - N/A   Overcast
8:56 PM 44.1 °F 38.6 °F 28.9 °F 55% 29.87 in 10.0 mi NNW 10.4 mph - N/A   Clear
9:56 PM 42.1 °F 37.7 °F 28.0 °F 58% 29.88 in 10.0 mi North 6.9 mph - N/A   Clear
10:56 PM 37.9 °F 31.5 °F 28.0 °F 68% 29.89 in 10.0 mi NNW 9.2 mph - N/A   Clear
11:56 PM 41.0 °F 34.3 °F 28.0 °F 60% 29.89 in 10.0 mi NNW 11.5 mph - N/A   Clear